Location: Unspecified
(0.0000°N, 0.0000°E)
Time: 22:10:26
(UTC+00:00)

USA 179 - Visible Passes

Search period start: 13 September 2024 00:00
Search period end: 23 September 2024 00:00
Orbit: 358 x 39990 km, 64.2° (Epoch: 15 January)

Date Brightness Start Highest point End Pass type
(mag) Time Alt. Az. Time Alt. Az. Time Alt. Az.
13 Sep ? 19:06:18 10° S 19:24:37 59° E 06:33:35 10° ESE visible
14 Sep ? 19:01:37 10° S 19:19:57 59° E 06:28:54 10° ESE visible
15 Sep ? 18:56:57 10° S 19:15:17 59° E 06:24:13 10° ESE visible
16 Sep ? 18:52:16 10° S 19:10:37 59° E 06:19:31 10° ESE visible
17 Sep ? 18:47:35 10° S 19:05:57 59° E 06:14:50 10° ESE visible
18 Sep ? 18:42:55 10° S 19:01:17 59° E 06:10:09 10° ESE visible
19 Sep ? 18:38:14 10° S 18:56:37 59° E 06:05:27 10° ESE visible
20 Sep ? 18:33:33 10° S 18:51:57 59° E 06:00:46 10° ESE visible
21 Sep ? 18:28:53 10° S 18:47:17 59° E 05:56:05 10° ESE visible
